Tracking 18785 objects as of 26-July-2017
HD Live streaming from Space Station
objects crossing your sky now
MAYAK may become the brightest orbital object in the night sky!
Where is MAYAK now?
How to spot MAYAK

USA 67

Track USA 67 now!
USA 67 is classified as:


NORAD ID: 20963
Int'l Code: 1990-097B
Perigee: 36,198.6 km
Apogee: 36,352.0 km
Inclination: 16.6 °
Period: 1,460.8 minutes
Semi major axis: 42646 km
RCS: Unknown
Launch date: November 15, 1990
Source: United States (US)
Launch site: AIR FORCE EASTERN TEST RANGE (AFETR)

$1 billion satellite; resolution of 5-6 inches.
Your satellite tracking list
Your tracking list is empty





NASA's NSSDC Master Catalog

Two Line Element Set (TLE):
1 20963U 90097B   17097.41083385 0.00000000  00000-0  00000-0 0    04
2 20963  16.6479   4.9204 0017991 206.7716 153.1475  0.98578264    05
Source of the keplerian elements: McCants